Showing default

YAOGAN-30 M, 43172

Orbit data source: Space-Track

YAOGAN-30 M, 43172 is a payload satellite owned by PLA SSF (CN) in LEO that was launched on Thu, 25 Jan 2018 UTC via a CHANG ZHENG 2C launch vehicle from the Xichang Space Center, China (XSC). Payload-class satellites include a variety of spacecraft equipped with specific instruments for various scientific and technological missions. These include communications satellites like Starlink; space stations such as the ISS; scientific satellites like the Hubble; Earth observation satellites from companies like Planet Labs, Umbra, and HawkEye 360; GPS; miniature CubeSats for education and research; and military/defense satellites.

Loading next visibility...
Identifier
43172, 2018-011D
Orbit
LEO
Country
Flag of CNCN / PRC
Related business
Manufacturer
SECM
Mission
Operational Defense Sigint
Bus & Motor
Unknown
Mass
~500 kg wet, ~500 kg dry
Launch date (UTC)
2018-01-25 (8 years ago)
Launch vehicle
CHANG ZHENG 2C
Launch site
Xichang Space Center, China (XSC)
Object type
Payload
Rocket body
Debris
Shape & HBR
Box + 2 Pan, 0.5 m
Radar Cross Section
0.446 m², Large (>1 m²)

Expand to show TLE details & history
Last TLE update: 4 hours ago

TLE from 4 hours ago
0 YAOGAN-30 M
1 43172U 18011D   25355.17251162  .00001988  00000-0  15246-3 0  9990
2 43172  34.9952 155.0702 0003483 306.5687  53.4700 15.01594702431308
Epoch: 2025-12-21T04:08Z
TLE epoch observation values (Epoch: 2025-12-21T04:08:25.003Z)
Latitude
-0.00004°
Longitude
2.97719°
Altitude
559.457 km
Speed
7.585 km/s
True Right ascension
10h 20m 16s
True Declination
0° 00' 00"
Sunlit
Object was in daylight at epoch
Visualization orbit readout
Latitude
Unknown
Longitude
Unknown
Altitude
Unknown
Speed
Unknown
Apparent Right ascension
Unknown
Apparent Declination
Unknown
Sunlit
N/A
Visualization observer readout
Local Sidereal Time
07:06:12
Azimuth
Unknown
Elevation
Unknown
Doppler factor
Unknown
Orbital elements
Apogee altitude
567.617 km
Perigee altitude
562.78 km
Semi-major axis
6,943.336 km
Eccentricity
0.00035
Inclination
34.9952°
RAAN
155.0702°
Arg. of periapsis
306.5687°
True anomaly
53.50208°
Mean anomaly
53.47°
Eccentric anomaly
53.48604°
Mean motion
3.75138 °/min
Orbital period
95.96 mins
BSTAR
0.00015246
Loading maneuver chart data...
Computing Atmospheric mass density...
Loading historical data...
Loading historical data...
Loading historical data...
Loading historical data...
Loading historical data...
Loading historical data...
Loading historical data...
Other satellites on launch #11 in the year 2018 (2018-01-25 UTC)

Documentation

Showing up to 5 results
|